Bloomington, IN

8:02 PM EST on November 17, 2019 (GMT -0500)
Monroe County

Weather History for KBMG - September, 2019

Change the Weather History Date:

Sunday, September 15, 2019

  Actual Average Record
Temperature  
Mean Temperature 70 °F 66 °F  
Max Temperature 84 °F 79 °F 90 °F (2010)
Min Temperature 55 °F 54 °F 39 °F (2007)
Degree Days  
Heating Degree Days 0 2  
Month to date heating degree days 0 14  
Since 1 July heating degree days 0 21  
Cooling Degree Days 5 3  
Month to date cooling degree days 110 68  
Year to date cooling degree days 1082 885  
Growing Degree Days 20 (Base 50)    
Moisture  
Dew Point 59 °F    
Average Humidity 68    
Maximum Humidity 93    
Minimum Humidity 42    
Precipitation  
Precipitation 0.00 in 0.11 in 0.82 in (2002)
Month to date precipitation 0.87 1.66  
Year to date precipitation 37.09 34.85  
Sea Level Pressure  
Sea Level Pressure 30.14 in    
Wind  
Wind Speed 2 mph ()    
Max Wind Speed 13 mph    
Max Gust Speed 17 mph    
Visibility 10.0 miles    
Events      
T = Trace of Precipitation, MM = Missing Value Source: Averaged Metar Reports

Daily Weather History Graph

Daily Weather History Graph

Search for Another Location

Airport or City:

Astronomy

Sep. 15, 2019 Rise Set
Actual Time 7:27 AM EDT 7:55 PM EDT
Civil Twilight 7:00 AM EDT 8:21 PM EDT
Nautical Twilight 6:29 AM EDT 8:53 PM EDT
Astronomical Twilight 5:56 AM EDT 9:25 PM EDT
Moon 9:03 PM EDT (9/15) 8:37 AM EDT (9/15)
Length of Visible Light 13h 21m
Length of Day
12h 27m
Full, 98% of the Moon is Illuminated
Sep 15
Full
Sep 21
Last Quarter
Sep 28
New
Oct 5
First Quarter
Oct 13
Full

Hourly Weather History & Observations

Time (EDT) Temp. Heat Index Dew Point Humidity Pressure Visibility Wind Dir Wind Speed Gust Speed Precip Events Conditions
12:53 AM 59.0 °F - 55.9 °F 90% 30.20 in 10.0 mi Calm Calm - N/A   Clear
1:53 AM 59.0 °F - 55.9 °F 90% 30.20 in 10.0 mi Calm Calm - N/A   Clear
2:53 AM 57.9 °F - 55.0 °F 90% 30.19 in 10.0 mi Calm Calm - N/A   Clear
3:53 AM 57.9 °F - 55.0 °F 90% 30.17 in 10.0 mi Calm Calm - N/A   Clear
4:53 AM 57.0 °F - 54.0 °F 89% 30.16 in 10.0 mi SE 3.5 mph - N/A   Clear
5:53 AM 55.9 °F - 54.0 °F 93% 30.16 in 10.0 mi Calm Calm - N/A   Clear
6:53 AM 60.1 °F - 54.0 °F 80% 30.16 in 10.0 mi SE 3.5 mph - N/A   Clear
7:53 AM 64.9 °F - 54.0 °F 68% 30.17 in 10.0 mi SSE 6.9 mph - N/A   Clear
8:53 AM 66.0 °F - 55.9 °F 70% 30.18 in 10.0 mi SE 5.8 mph - N/A   Clear
9:53 AM 70.0 °F - 57.0 °F 63% 30.20 in 10.0 mi SSE 3.5 mph - N/A   Clear
10:53 AM 73.9 °F - 55.9 °F 53% 30.18 in 10.0 mi SSE 8.1 mph - N/A   Clear
11:53 AM 77.0 °F - 57.9 °F 52% 30.18 in 10.0 mi SSE 6.9 mph - N/A   Clear
12:53 PM 79.0 °F - 60.1 °F 52% 30.17 in 10.0 mi SE 4.6 mph - N/A   Clear
1:53 PM 82.0 °F 81.7 °F 57.0 °F 42% 30.15 in 10.0 mi Calm Calm - N/A   Clear
2:53 PM 81.0 °F 81.6 °F 60.1 °F 49% 30.10 in 10.0 mi SSW 6.9 mph - N/A   Clear
3:53 PM 82.9 °F 83.3 °F 61.0 °F 47% 30.06 in 10.0 mi South 8.1 mph - N/A   Clear
4:53 PM 84.0 °F 84.5 °F 62.1 °F 47% 30.06 in 10.0 mi West 3.5 mph - N/A   Clear
5:53 PM 84.9 °F 86.1 °F 64.0 °F 49% 30.06 in 10.0 mi West 3.5 mph - N/A   Clear
6:53 PM 82.9 °F 84.6 °F 64.9 °F 54% 30.05 in 10.0 mi South 3.5 mph - N/A   Clear
7:53 PM 75.9 °F - 66.9 °F 74% 30.05 in 10.0 mi South 5.8 mph - N/A   Clear
10:53 PM 72.0 °F - 64.9 °F 78% 30.06 in 10.0 mi SE 3.5 mph - N/A   Scattered Clouds
11:53 PM 69.1 °F - 64.0 °F 84% 30.06 in 10.0 mi Calm Calm - N/A   Clear